Latrobe, PA

2:42 PM EDT on April 22, 2018 (GMT -0400)
Arnold Palmer Regional

Weather History for KLBE - December, 2013

Change the Weather History Date:

Saturday, December 14, 2013

  Actual Average Record
Temperature  
Mean Temperature 34 °F -  
Max Temperature 35 °F 40 °F 68 °F (2001)
Min Temperature 32 °F 26 °F 14 °F (2010)
Degree Days  
Heating Degree Days 32    
Moisture  
Dew Point 29 °F    
Average Humidity 85    
Maximum Humidity 93    
Minimum Humidity 52    
Precipitation  
Precipitation 0.00 in - - ()
Sea Level Pressure  
Sea Level Pressure 30.02 in    
Wind  
Wind Speed 7 mph (SSE)    
Max Wind Speed 16 mph    
Max Gust Speed 23 mph    
Visibility 4 miles    
Events Rain , Snow    
Averages and records for this station are not official NWS values.
T = Trace of Precipitation, MM = Missing Value Source: NWS Daily Summary

Daily Weather History Graph

Daily Weather History Graph

Search for Another Location

Airport or City:

Astronomy

Dec. 14, 2013 Rise Set
Actual Time 7:32 AM EST 4:52 PM EST
Civil Twilight 7:01 AM EST 5:22 PM EST
Nautical Twilight 6:27 AM EST 5:57 PM EST
Astronomical Twilight 5:54 AM EST 6:30 PM EST
Moon 3:13 PM EST (12/14) 4:51 AM EST (12/14)
Length of Visible Light 10h 20m
Length of Day
9h 19m
Waxing Gibbous, 93% of the Moon is Illuminated
Dec 14
Waxing Gibbous
Dec 17
Full
Dec 25
Last Quarter
Jan 1
New
Jan 7
First Quarter

Hourly Weather History & Observations

Time (EST) Temp. Windchill Dew Point Humidity Pressure Visibility Wind Dir Wind Speed Gust Speed Precip Events Conditions
6:10 AM 33.8 °F 28.6 °F 19.4 °F 56% 30.18 in 10.0 mi South 5.8 mph - N/A   Scattered Clouds
6:50 AM 32.0 °F - 23.0 °F 69% 30.17 in 10.0 mi Calm Calm - N/A   Mostly Cloudy
7:50 AM 35.6 °F 29.2 °F 19.4 °F 52% 30.17 in 10.0 mi South 8.1 mph - N/A   Overcast
8:00 AM 35.6 °F 25.9 °F 23.0 °F 60% 30.17 in 4.0 mi South 16.1 mph - N/A Snow Light Snow
8:45 AM 32.0 °F 24.8 °F 30.2 °F 93% 30.18 in 3.0 mi SSE 8.1 mph - N/A Snow Light Snow
8:50 AM 32.0 °F 24.2 °F 30.2 °F 93% 30.18 in 2.0 mi SSE 9.2 mph - N/A Snow Light Snow
9:25 AM 32.0 °F 24.8 °F 30.2 °F 93% 30.16 in 5.0 mi SSE 8.1 mph - N/A Snow Light Snow
9:50 AM 33.8 °F - 32.0 °F 93% 30.16 in 3.0 mi Calm Calm - N/A Snow Light Snow
10:55 AM 33.8 °F 26.4 °F 32.0 °F 93% 30.12 in 4.0 mi South 9.2 mph - N/A Snow Light Snow
11:45 AM 33.8 °F 29.6 °F 32.0 °F 93% 30.06 in 3.0 mi ESE 4.6 mph - N/A Snow Light Snow
12:47 PM 35.6 °F - 32.0 °F 87% 30.00 in 7.0 mi Calm Calm - N/A Snow Light Snow
1:28 PM 35.6 °F 28.0 °F 32.0 °F 87% 29.96 in 2.0 mi SE 10.4 mph 23.0 mph N/A Rain , Snow Light Snow
1:47 PM 33.8 °F 23.5 °F 32.0 °F 93% 29.95 in 1.5 mi SE 16.1 mph 20.7 mph N/A Snow Light Snow
2:00 PM 33.8 °F 24.8 °F 32.0 °F 93% 29.93 in 0.5 mi SE 12.7 mph 20.7 mph N/A Snow Light Snow
2:47 PM 33.8 °F 26.4 °F 32.0 °F 93% 29.90 in 1.0 mi SE 9.2 mph 16.1 mph N/A Snow Light Snow
3:06 PM 33.8 °F 25.8 °F 32.0 °F 93% 29.88 in 1.5 mi SE 10.4 mph 18.4 mph N/A Snow Light Snow
3:45 PM 33.8 °F 30.8 °F 32.0 °F 93% 29.86 in 1.5 mi SW 3.5 mph 19.6 mph N/A Rain Light Rain
4:50 PM 33.8 °F 27.7 °F 32.0 °F 93% 29.83 in 3.0 mi South 6.9 mph - N/A Snow Light Snow
5:50 PM - - - N/A% 29.82 in 3.0 mi South 9.2 mph - N/A   Overcast
6:50 PM - - - N/A% 29.79 in 3.0 mi SE 13.8 mph - N/A   Overcast